EW5523 Weather Reports


time (UTC)temp
C
wind
direction
speed
KPH
gust
KPH
rain 1hr
cm
rain 24hr
cm
rain mn
cm
humidity
%
barometer
mb
20260904031549 13 241 0.0 0.0 0.00 0.00 0.00 88 1013.6
20260904030036 13 241 0.0 0.0 0.00 0.00 0.00 89 1013.6
20260904024536 13 241 0.0 0.0 0.00 0.00 0.00 91 1013.5
20260904023035 12 241 0.0 0.0 0.00 0.00 0.00 92 1013.5
20260904021533 12 241 0.0 0.0 0.00 0.00 0.00 93 1013.4
20260904020033 11 241 0.0 0.0 0.00 0.00 0.00 93 1013.4
20260904014532 11 241 0.0 0.0 0.00 0.00 0.00 92 1013.4
20260904013029 12 241 0.0 0.0 0.00 0.00 0.00 91 1013.4
20260904011530 12 241 0.0 0.0 0.00 0.00 0.00 92 1013.3
20260904010029 12 241 0.0 0.0 0.00 0.00 0.00 92 1013.3
20260904004525 12 241 0.0 0.0 0.00 0.00 0.00 91 1013.2
20260904003023 12 241 0.0 0.0 0.00 0.00 0.00 91 1013.1
20260904001522 12 241 0.0 0.0 0.00 0.00 0.00 91 1013.1
20260904000022 12 241 0.0 0.0 0.00 0.00 0.00 90 1013.0
20260903234520 12 241 0.0 0.0 0.00 0.00 0.00 90 1013.0
20260903233018 12 241 0.0 0.0 0.00 0.00 0.00 89 1012.9
20260903231518 12 241 0.0 0.0 0.00 0.00 0.00 88 1012.8
20260903230021 13 241 0.0 0.0 0.00 0.00 0.00 88 1012.8
20260903224518 13 241 0.0 0.0 0.00 0.00 0.00 88 1012.7
20260903223013 13 241 0.0 0.0 0.00 0.00 0.00 87 1012.8
20260903221511 13 241 0.0 0.0 0.00 0.00 0.00 86 1012.7
20260903220013 13 241 0.0 0.0 0.00 0.00 0.00 85 1012.6
20260903214513 13 241 0.0 0.0 0.00 0.00 0.00 83 1012.6
20260903213006 14 241 0.0 0.0 0.00 0.00 0.00 82 1012.6
20260903211510 15 241 0.0 0.0 0.00 0.00 0.00 81 1012.5
20260903204601 15 241 0.0 3.2 0.00 0.00 0.00 79 1012.5
20260903203057 15 261 0.0 0.0 0.00 0.00 0.00 79 1012.5
20260903201601 15 260 0.0 0.0 0.00 0.00 0.00 78 1012.4
20260903200058 15 260 0.0 0.0 0.00 0.00 0.00 77 1012.5
20260903194556 16 259 0.0 0.0 0.00 0.00 0.00 76 1012.4
20260903193051 16 258 0.0 0.0 0.00 0.00 0.00 74 1012.3
20260903191551 16 258 0.0 0.0 0.00 0.00 0.00 74 1012.2
20260903190051 16 247 0.0 4.8 0.00 0.00 0.00 73 1012.1
20260903184551 16 222 0.0 0.0 0.00 0.00 0.00 71 1012.0
20260903183048 17 226 0.0 0.0 0.00 0.00 0.00 69 1011.9
20260903181546 17 233 0.0 1.6 0.00 0.00 0.00 67 1011.8
20260903180047 17 246 0.0 8.0 0.00 0.00 0.00 65 1011.8
20260903174545 17 238 0.0 0.0 0.00 0.00 0.00 64 1011.6
20260903173045 17 240 0.0 0.0 0.00 0.00 0.00 63 1011.6
20260903171543 18 236 0.0 0.0 0.00 0.00 0.00 61 1011.5
20260903170053 18 233 0.0 0.0 0.00 0.00 0.00 59 1011.4
20260903164543 18 201 0.0 0.0 0.00 0.00 0.00 58 1011.3
20260903163042 19 216 0.0 0.0 0.00 0.00 0.00 57 1011.4
20260903161542 19 206 0.0 0.0 0.00 0.00 0.00 55 1011.3
20260903160042 20 164 0.0 0.0 0.00 0.00 0.00 54 1011.2
20260903154546 20 174 0.0 1.6 0.00 0.00 0.00 54 1011.2
20260903153046 20 175 0.0 3.2 0.00 0.00 0.00 53 1011.1
20260903151542 21 216 0.0 1.6 0.00 0.00 0.00 52 1011.0
20260903150048 21 152 0.0 4.8 0.00 0.00 0.00 50 1011.0
20260903144543 22 156 0.0 6.4 0.00 0.00 0.00 48 1011.0
20260903143052 22 176 0.0 9.7 0.00 0.00 0.00 48 1011.0
20260903141543 22 180 0.0 3.2 0.00 0.00 0.00 47 1011.0
20260903140037 23 212 0.0 19.3 0.00 0.00 0.00 45 1010.9
20260903134536 23 201 0.0 8.0 0.00 0.00 0.00 46 1010.9
20260903133035 23 216 0.0 9.7 0.00 0.00 0.00 47 1010.9
20260903131534 23 199 0.0 12.9 0.00 0.00 0.00 46 1011.0
20260903130034 23 214 0.0 8.0 0.00 0.00 0.00 47 1011.1
20260903124534 23 218 0.0 8.0 0.00 0.00 0.00 46 1011.0
20260903123031 24 269 0.0 8.0 0.00 0.00 0.00 46 1011.2
20260903121530 23 186 0.0 11.3 0.00 0.00 0.00 47 1011.3
20260903120033 23 209 0.0 14.5 0.00 0.00 0.00 46 1011.3
20260903114531 23 172 0.0 16.1 0.00 0.00 0.00 46 1011.5
20260903113030 23 187 0.0 12.9 0.00 0.00 0.00 45 1011.5
20260903111532 24 200 1.6 14.5 0.00 0.00 0.00 43 1011.7
20260903110026 24 199 0.0 9.7 0.00 0.00 0.00 43 1011.7
20260903104524 24 179 0.0 9.7 0.00 0.00 0.00 42 1011.8
20260903103023 24 170 0.0 9.7 0.00 0.00 0.00 42 1011.9
20260903101527 24 214 3.2 22.5 0.00 0.00 0.00 41 1011.9
20260903100023 24 259 0.0 17.7 0.00 0.00 0.00 42 1011.9
20260903094521 25 131 0.0 16.1 0.00 0.00 0.00 38 1012.0
20260903093032 25 282 0.0 8.0 0.00 0.00 0.00 40 1012.0
20260903091531 25 197 1.6 17.7 0.00 0.00 0.00 40 1012.2
20260903090023 25 230 0.0 9.7 0.00 0.00 0.00 44 1012.3
20260903084528 24 210 0.0 12.9 0.00 0.00 0.00 47 1012.4
20260903083009 24 189 0.0 8.0 0.00 0.00 0.00 50 1012.4
20260903081507 23 228 0.0 11.3 0.00 0.00 0.00 49 1012.6
20260903080003 23 199 0.0 8.0 0.00 0.00 0.00 52 1012.7
20260903074600 23 224 0.0 8.0 0.00 0.00 0.00 55 1012.8
20260903073056 22 161 0.0 6.4 0.00 0.00 0.00 61 1012.9
20260903071557 22 170 0.0 8.0 0.00 0.00 0.00 60 1013.0
20260903070055 22 230 0.0 8.0 0.00 0.00 0.00 59 1013.0
20260903064554 21 243 0.0 3.2 0.00 0.00 0.00 63 1013.0
20260903063051 21 163 0.0 6.4 0.00 0.00 0.00 64 1013.2
20260903061545 20 218 0.0 3.2 0.00 0.00 0.00 66 1013.2
20260903060044 20 164 0.0 4.8 0.00 0.00 0.00 66 1013.1
20260903054539 19 179 0.0 1.6 0.00 0.00 0.00 69 1013.2
20260903053039 19 142 0.0 4.8 0.00 0.00 0.00 68 1013.1
20260903051538 19 210 0.0 3.2 0.00 0.00 0.00 68 1013.1
20260903050043 18 214 0.0 0.0 0.00 0.00 0.00 71 1013.1
20260903044534 18 181 0.0 4.8 0.00 0.00 0.00 72 1013.1
20260903043028 17 189 0.0 1.6 0.00 0.00 0.00 75 1013.3
20260903041525 17 211 0.0 1.6 0.00 0.00 0.00 78 1013.2
20260903040021 16 174 0.0 0.0 0.00 0.00 0.00 81 1013.3
20260903034517 15 218 0.0 1.6 0.00 0.00 0.00 83 1013.4
20260903033016 15 167 0.0 0.0 0.00 0.00 0.00 84 1013.4